Location: Mentone
(34.5413°N, 85.5351°W)
Time: 18:27:29
(UTC-05:00)

Vanguard 2 Rocket - Visible Passes

Search period start: 17 August 2017 00:00
Search period end: 27 August 2017 00:00
Orbit: 554 x 3328 km, 32.9° (Epoch: 17 August)

Date Brightness Start Highest point End Pass type
(mag) Time Alt. Az. Time Alt. Az. Time Alt. Az.
21 Aug 7.9 05:09:51 10° SSW 05:12:48 18° SSE 05:15:37 10° ESE visible
22 Aug 8.4 04:13:40 12° SSE 04:13:47 12° SSE 04:15:25 10° SE visible
23 Aug 7.1 05:23:34 10° SW 05:27:21 32° SSE 05:30:54 10° E visible
24 Aug 7.6 04:27:38 22° S 04:28:23 23° SSE 04:31:35 10° ESE visible
25 Aug 8.7 03:31:40 12° ESE 03:31:40 12° ESE 03:32:11 10° ESE visible
25 Aug 6.4 05:37:47 10° WSW 05:41:58 49° SSE 05:45:48 10° E visible
26 Aug 6.9 04:41:31 29° SSW 04:43:02 37° SSE 04:46:44 10° E visible
